TimeMST,TemperatureF,Dew PointF,Humidity,Sea Level PressureIn,VisibilityMPH,Wind Direction,Wind SpeedMPH,Gust SpeedMPH,PrecipitationIn,Events,Conditions,WindDirDegrees,DateUTC
12:43 AM,66.2,30.2,26,30.01,15.0,NW,13.8,-,N/A,,Clear,310,2013-03-03 07:43:00
1:42 AM,68.0,28.4,23,29.96,15.0,NW,13.8,-,N/A,,Clear,310,2013-03-03 08:42:00
2:40 AM,69.8,21.2,16,29.99,15.0,WNW,13.8,-,N/A,,Clear,290,2013-03-03 09:40:00
6:12 AM,66.2,12.2,12,29.98,15.0,NW,11.5,-,N/A,,Clear,310,2013-03-03 13:12:00
6:47 AM,68.0,6.8,9,29.99,15.0,NW,11.5,-,N/A,,Clear,310,2013-03-03 13:47:00
7:41 AM,73.4,8.6,8,29.97,15.0,NW,11.5,-,N/A,,Clear,310,2013-03-03 14:41:00
8:45 AM,82.4,10.4,7,30.02,15.0,NW,11.5,-,N/A,,Clear,310,2013-03-03 15:45:00
9:45 AM,87.8,14.0,6,30.02,15.0,NNW,11.5,-,N/A,,Clear,330,2013-03-03 16:45:00
10:47 AM,91.4,14.0,6,29.99,15.0,North,5.8,-,N/A,,Clear,350,2013-03-03 17:47:00
11:45 AM,82.4,39.2,21,30.01,15.0,SSE,11.5,-,N/A,,Clear,150,2013-03-03 18:45:00
12:40 PM,84.2,32.0,15,29.99,15.0,SSE,13.8,-,N/A,,Clear,150,2013-03-03 19:40:00
1:48 PM,87.8,44.6,22,29.94,15.0,SSE,11.5,-,N/A,,Clear,160,2013-03-03 20:48:00
2:46 PM,89.6,41.0,18,29.94,15.0,SSE,6.9,-,N/A,,Clear,150,2013-03-03 21:46:00
3:49 PM,86.0,37.4,18,29.93,15.0,SE,11.5,-,N/A,,Clear,130,2013-03-03 22:49:00
4:40 PM,84.2,30.2,14,29.91,15.0,SE,12.7,-,N/A,,Clear,140,2013-03-03 23:40:00
6:01 PM,75.2,44.6,34,29.95,12.0,SSE,5.8,-,N/A,,Clear,160,2013-03-04 01:01:00
6:44 PM,71.6,46.4,41,29.96,12.0,South,3.5,-,N/A,,Clear,170,2013-03-04 01:44:00
7:40 PM,69.8,55.4,60,29.94,12.0,South,4.6,-,N/A,,Clear,180,2013-03-04 02:40:00
8:40 PM,66.2,55.4,68,29.99,12.0,SW,2.3,-,N/A,,Clear,220,2013-03-04 03:40:00
9:40 PM,64.4,50.0,59,30.00,12.0,NW,3.5,-,N/A,,Clear,310,2013-03-04 04:40:00
10:44 PM,60.8,46.4,59,29.96,12.0,NW,3.5,-,N/A,,Clear,310,2013-03-04 05:44:00